When you browse on this site, cookies collect data to enhance your experience and personalize the content and advertising you see.
Visit our Privacy Policy to learn more. By continuing to use the site, you agree to this use of cookies and data.
  • In Austria
  • List of Countries
  • For 7 days
  • Water Temperature
  • Satellite Maps
  • Weather Map
  • News
  • Weather Widgets
  • user-avatar
    Login

    Hourly Weather Rohachyn

    Today, 21 February, Thursday

    Time Temperature Precipitation Wind Pressure Humidity
    00:00 +1°C° 0 mm 5 mps 736 mmHg 80%
    01:00 0°C° 0 mm 5 mps 736 mmHg 81%
    02:00 0°C° 0 mm 5 mps 737 mmHg 83%
    03:00 0°C° 0 mm 5 mps 737 mmHg 85%
    04:00 0°C° 0 mm 5 mps 737 mmHg 86%
    05:00 0°C° 0 mm 5 mps 737 mmHg 88%
    06:00 0°C° 0 mm 5 mps 737 mmHg 88%
    07:00 -2°C° 0 mm 6 mps 738 mmHg 89%
    08:00 -2°C° 0 mm 6 mps 738 mmHg 90%
    09:00 -1°C° 0 mm 6 mps 738 mmHg 88%
    10:00 +1°C° 0 mm 6 mps 738 mmHg 85%
    11:00 +1°C° 0 mm 6 mps 738 mmHg 83%
    12:00 +2°C° 0.1 mm 6 mps 738 mmHg 82%
    13:00 +2°C° 0.1 mm 6 mps 738 mmHg 81%
    14:00 +2°C° 0.1 mm 6 mps 738 mmHg 80%
    15:00 +3°C° 0 mm 6 mps 737 mmHg 80%
    16:00 +3°C° 0 mm 5 mps 737 mmHg 81%
    17:00 +3°C° 0 mm 5 mps 737 mmHg 81%
    18:00 +3°C° 0.1 mm 5 mps 737 mmHg 81%
    19:00 +2°C° 0.1 mm 5 mps 737 mmHg 81%
    20:00 +2°C° 0.1 mm 5 mps 736 mmHg 81%
    21:00 +2°C° 0.3 mm 5 mps 736 mmHg 81%
    22:00 +2°C° 0.3 mm 5 mps 736 mmHg 81%
    23:00 +2°C° 0.3 mm 5 mps 736 mmHg 81%

    Tomorrow, 22 February, Friday

    Time Temperature Precipitation Wind Pressure Humidity
    00:00 +2°C° 0.5 mm 5 mps 735 mmHg 83%
    01:00 +2°C° 0.5 mm 5 mps 735 mmHg 85%
    02:00 +2°C° 0.5 mm 5 mps 735 mmHg 87%
    03:00 +2°C° 0.6 mm 5 mps 734 mmHg 89%
    04:00 +2°C° 0.6 mm 5 mps 734 mmHg 90%
    05:00 +3°C° 0.6 mm 4 mps 734 mmHg 91%
    06:00 0°C° 0.6 mm 5 mps 734 mmHg 91%
    07:00 -2°C° 0.6 mm 6 mps 734 mmHg 91%
    08:00 -3°C° 0.6 mm 7 mps 734 mmHg 91%
    09:00 -4°C° 0.3 mm 7 mps 735 mmHg 87%
    10:00 -6°C° 0.3 mm 7 mps 737 mmHg 83%
    11:00 -6°C° 0.3 mm 7 mps 738 mmHg 79%
    12:00 -6°C° 0 mm 7 mps 739 mmHg 74%
    13:00 -6°C° 0 mm 7 mps 739 mmHg 69%
    14:00 -5°C° 0 mm 6 mps 740 mmHg 65%
    15:00 -6°C° 0 mm 6 mps 741 mmHg 64%
    16:00 -6°C° 0 mm 6 mps 741 mmHg 63%
    17:00 -8°C° 0 mm 6 mps 742 mmHg 62%
    18:00 -9°C° 0 mm 6 mps 743 mmHg 62%
    19:00 -9°C° 0 mm 6 mps 743 mmHg 61%
    20:00 -9°C° 0 mm 6 mps 744 mmHg 60%
    21:00 -10°C° 0 mm 6 mps 745 mmHg 59%
    22:00 -10°C° 0 mm 6 mps 745 mmHg 57%
    23:00 -10°C° 0 mm 6 mps 746 mmHg 56%

    Day after tomorrow, 23 February, Saturday

    Time Temperature Precipitation Wind Pressure Humidity
    00:00 -10°C° 0 mm 6 mps 746 mmHg 56%
    01:00 -10°C° 0 mm 6 mps 746 mmHg 56%
    02:00 -10°C° 0 mm 6 mps 747 mmHg 56%
    03:00 -11°C° 0 mm 6 mps 747 mmHg 57%
    04:00 -11°C° 0 mm 5 mps 747 mmHg 58%
    05:00 -11°C° 0 mm 5 mps 747 mmHg 59%
    06:00 -11°C° 0 mm 5 mps 747 mmHg 60%
    07:00 -11°C° 0 mm 5 mps 748 mmHg 61%
    08:00 -11°C° 0 mm 5 mps 748 mmHg 62%
    09:00 -11°C° 0 mm 5 mps 748 mmHg 60%
    10:00 -10°C° 0 mm 5 mps 749 mmHg 57%
    11:00 -9°C° 0 mm 4 mps 749 mmHg 55%
    12:00 -8°C° 0 mm 5 mps 749 mmHg 54%
    13:00 -8°C° 0 mm 5 mps 749 mmHg 53%
    14:00 -7°C° 0 mm 5 mps 749 mmHg 52%
    15:00 -8°C° 0 mm 5 mps 749 mmHg 53%
    16:00 -8°C° 0 mm 4 mps 749 mmHg 55%
    17:00 -8°C° 0 mm 4 mps 749 mmHg 56%
    18:00 -8°C° 0 mm 4 mps 749 mmHg 59%
    19:00 -8°C° 0 mm 4 mps 749 mmHg 61%
    20:00 -8°C° 0 mm 3 mps 749 mmHg 63%
    21:00 -8°C° 0 mm 3 mps 749 mmHg 63%
    22:00 -8°C° 0 mm 3 mps 749 mmHg 62%
    23:00 -7°C° 0 mm 2 mps 750 mmHg 61%

    24 February, Sunday

    Time Temperature Precipitation Wind Pressure Humidity
    00:00 -7°C° 0 mm 2 mps 749 mmHg 63%
    01:00 -7°C° 0 mm 2 mps 749 mmHg 64%
    02:00 -8°C° 0 mm 2 mps 749 mmHg 65%
    03:00 -8°C° 0 mm 2 mps 749 mmHg 66%
    04:00 -8°C° 0 mm 2 mps 748 mmHg 67%
    05:00 -8°C° 0 mm 2 mps 748 mmHg 67%
    06:00 -8°C° 0 mm 2 mps 748 mmHg 65%
    07:00 -7°C° 0 mm 2 mps 748 mmHg 62%
    08:00 -8°C° 0 mm 3 mps 748 mmHg 60%
    09:00 -7°C° 0 mm 3 mps 748 mmHg 54%
    10:00 -6°C° 0 mm 3 mps 748 mmHg 49%
    11:00 -5°C° 0 mm 3 mps 748 mmHg 44%
    12:00 -4°C° 0 mm 3 mps 747 mmHg 41%
    13:00 -2°C° 0 mm 3 mps 747 mmHg 39%
    14:00 -3°C° 0 mm 4 mps 746 mmHg 36%
    15:00 -2°C° 0 mm 3 mps 746 mmHg 38%
    16:00 -2°C° 0 mm 3 mps 745 mmHg 40%
    17:00 -2°C° 0 mm 3 mps 745 mmHg 41%
    18:00 -2°C° 0 mm 3 mps 745 mmHg 42%
    19:00 -2°C° 0 mm 3 mps 744 mmHg 43%
    20:00 -2°C° 0 mm 3 mps 744 mmHg 44%
    21:00 -2°C° 0 mm 3 mps 744 mmHg 45%
    22:00 -2°C° 0 mm 3 mps 743 mmHg 46%
    23:00 -3°C° 0 mm 4 mps 743 mmHg 48%

    25 February, Monday

    Time Temperature Precipitation Wind Pressure Humidity
    00:00 -3°C° 0 mm 4 mps 743 mmHg 53%
    01:00 -3°C° 0 mm 4 mps 742 mmHg 59%
    02:00 -3°C° 0 mm 4 mps 742 mmHg 64%
    03:00 -5°C° 0.3 mm 5 mps 741 mmHg 74%
    04:00 -5°C° 0.3 mm 5 mps 741 mmHg 84%
    05:00 -5°C° 0.3 mm 5 mps 740 mmHg 93%
    06:00 -4°C° 0.4 mm 5 mps 740 mmHg 92%
    07:00 -4°C° 0.4 mm 5 mps 740 mmHg 92%
    08:00 -4°C° 0.4 mm 6 mps 740 mmHg 91%
    09:00 -3°C° 0.2 mm 6 mps 740 mmHg 91%
    10:00 -3°C° 0.2 mm 6 mps 740 mmHg 91%
    11:00 -2°C° 0.2 mm 6 mps 740 mmHg 91%
    12:00 -2°C° 0.1 mm 7 mps 740 mmHg 89%
    13:00 -1°C° 0.1 mm 7 mps 740 mmHg 87%
    14:00 -1°C° 0.1 mm 8 mps 740 mmHg 85%
    15:00 -1°C° 0.1 mm 7 mps 741 mmHg 85%
    16:00 -2°C° 0.1 mm 7 mps 741 mmHg 85%
    17:00 -2°C° 0.1 mm 6 mps 741 mmHg 85%
    18:00 -2°C° 0 mm 5 mps 741 mmHg 85%
    19:00 -2°C° 0 mm 5 mps 742 mmHg 86%
    20:00 -3°C° 0 mm 4 mps 742 mmHg 87%
    21:00 -4°C° 0 mm 5 mps 742 mmHg 86%
    22:00 -4°C° 0 mm 5 mps 743 mmHg 84%
    23:00 -4°C° 0 mm 5 mps 743 mmHg 83%

    26 February, Tuesday

    Time Temperature Precipitation Wind Pressure Humidity
    00:00 -4°C° 0 mm 5 mps 742 mmHg 86%
    01:00 -4°C° 0 mm 5 mps 742 mmHg 88%
    02:00 -5°C° 0 mm 5 mps 742 mmHg 90%
    03:00 -5°C° 0 mm 5 mps 741 mmHg 91%
    04:00 -5°C° 0 mm 5 mps 741 mmHg 92%
    05:00 -5°C° 0 mm 5 mps 740 mmHg 93%
    06:00 -5°C° 0 mm 5 mps 740 mmHg 91%
    07:00 -5°C° 0 mm 6 mps 739 mmHg 88%
    08:00 -4°C° 0 mm 6 mps 739 mmHg 86%
    09:00 -3°C° 0 mm 7 mps 738 mmHg 82%
    10:00 -2°C° 0 mm 7 mps 738 mmHg 79%
    11:00 -1°C° 0 mm 7 mps 737 mmHg 76%
    12:00 -1°C° 0 mm 7 mps 737 mmHg 77%
    13:00 0°C° 0 mm 7 mps 737 mmHg 77%
    14:00 0°C° 0 mm 7 mps 736 mmHg 78%
    15:00 +1°C° 0 mm 6 mps 736 mmHg 80%
    16:00 +1°C° 0 mm 6 mps 735 mmHg 82%
    17:00 -1°C° 0 mm 6 mps 735 mmHg 84%
    18:00 -1°C° 0 mm 6 mps 734 mmHg 86%
    19:00 -1°C° 0 mm 6 mps 734 mmHg 88%
    20:00 -1°C° 0 mm 6 mps 734 mmHg 90%
    21:00 0°C° 0.2 mm 7 mps 733 mmHg 89%
    22:00 0°C° 0.2 mm 8 mps 732 mmHg 89%
    23:00 0°C° 0.2 mm 9 mps 732 mmHg 89%
    Show more